ONEWEB-0364, 49290

Orbit data source: Space-Track

ONEWEB-0364, 49290 is a payload satellite owned by One Web (NAA) (UK) in LEO that was launched on Thu, 14 Oct 2021 UTC via a SOYUZ-2-1B launch vehicle from the Vostochny Cosmodrome (VOSTO). Payload-class satellites include a variety of spacecraft equipped with specific instruments for various scientific and technological missions. These include communications satellites like Starlink; space stations such as the ISS; scientific satellites like the Hubble; Earth observation satellites from companies like Planet Labs, Umbra, and HawkEye 360; GPS; miniature CubeSats for education and research; and military/defense satellites.

Loading next visibility...
Identifier
49290, 2021-090M
Orbit
LEO
Country
Flag of UKUK
Related business
Manufacturer
One Web
Mission
Operational Commercial Communications
Bus & Motor
ARROW, Unknown motor
Mass
148 kg wet, ~140 kg dry
Launch date (UTC)
2021-10-14 (5 years ago)
Launch vehicle
SOYUZ-2-1B
Launch site
Vostochny Cosmodrome (VOSTO)
Object type
Payload
Rocket body
Debris
Shape & HBR
Trap Box + 2 Pan, 6.7 m
Radar Cross Section
3.464 m², Large (>1 m²)

Expand to show TLE details & history
Last TLE update: 2 days ago

TLE from 2 days ago
0 ONEWEB-0364
1 49290U 21090M   26171.30875242 -.00000048  00000-0 -14959-3 0  9999
2 49290  87.9197 273.8252 0002043 100.9236 259.2127 13.20772641231856
Epoch: 2026-06-20T07:24Z
TLE epoch observation values (Epoch: 2026-06-20T07:24:36.209Z)
Latitude
-0.00003°
Longitude
-105.8509°
Altitude
1,184.963 km
Speed
7.261 km/s
True Right ascension
18h 15m 18s
True Declination
0° 00' 00"
Sunlit
Object was in full shadow at epoch
Visualization orbit readout
Latitude
Unknown
Longitude
Unknown
Altitude
Unknown
Speed
Unknown
Apparent Right ascension
Unknown
Apparent Declination
Unknown
Sunlit
N/A
Visualization observer readout
Local Sidereal Time
23:20:00
Azimuth
Unknown
Elevation
Unknown
Doppler factor
Unknown
Orbital elements
Apogee altitude
1,180.418 km
Perigee altitude
1,177.33 km
Semi-major axis
7,557.011 km
Eccentricity
0.0002
Inclination
87.9197°
RAAN
273.8252°
Arg. of periapsis
100.9236°
True anomaly
259.1897°
Mean anomaly
259.2127°
Eccentric anomaly
259.2012°
Mean motion
3.30383 °/min
Orbital period
108.96 mins
BSTAR
-0.00014959
Loading maneuver chart data...
Computing Atmospheric mass density...
Loading historical data...
Loading historical data...
Loading historical data...
Loading historical data...
Loading historical data...
Loading historical data...
Loading historical data...

Documentation

Showing up to 5 results
|